Date,TemperatureHighF,TemperatureAvgF,TemperatureLowF,DewpointHighF,DewpointAvgF,DewpointLowF,HumidityHigh,HumidityAvg,HumidityLow,PressureMaxIn,PressureMinIn,WindSpeedMaxMPH,WindSpeedAvgMPH,GustSpeedMaxMPH,PrecipitationSumIn
2013-5-1,38,34,29,-100,-100,-100,0,0,100,0.00,40.00,0,-999,0,0.01
2013-5-2,32,19,3,-100,-100,-100,0,0,100,0.00,40.00,0,-999,0,0.01
2013-5-3,47,32,14,-100,-100,-100,0,0,100,0.00,40.00,0,-999,0,0.00
2013-5-4,46,32,17,-100,-100,-100,0,0,100,0.00,40.00,0,-999,0,0.00
2013-5-5,49,36,27,-100,-100,-100,0,0,100,0.00,40.00,0,-999,0,0.00
2013-5-6,45,38,30,-100,-100,-100,0,0,100,0.00,40.00,0,-999,0,0.00
2013-5-7,44,36,28,-100,-100,-100,0,0,100,0.00,40.00,0,-999,0,0.00
2013-5-8,39,32,26,-100,-100,-100,0,0,100,0.00,40.00,0,-999,0,0.01
2013-5-9,40,34,30,-100,-100,-100,0,0,100,0.00,40.00,0,-999,0,0.03
2013-5-10,46,29,18,-100,-100,-100,0,0,100,0.00,40.00,0,-999,0,0.01
2013-5-11,50,34,22,-100,-100,-100,0,0,100,0.00,40.00,0,-999,0,0.00
2013-5-12,53,42,32,-100,-100,-100,0,0,100,0.00,40.00,0,-999,0,0.00
2013-5-13,58,44,33,-100,-100,-100,0,0,100,0.00,40.00,0,-999,0,0.00
2013-5-14,60,43,33,-100,-100,-100,0,0,100,0.00,40.00,0,-999,0,0.00
2013-5-15,54,42,34,-100,-100,-100,0,0,100,0.00,40.00,0,-999,0,0.01
2013-5-16,55,43,31,-100,-100,-100,0,0,100,0.00,40.00,0,-999,0,0.00
2013-5-17,61,45,31,-100,-100,-100,0,0,100,0.00,40.00,0,-999,0,0.00
2013-5-18,47,39,31,-100,-100,-100,0,0,100,0.00,40.00,0,-999,0,0.01
2013-5-19,39,34,28,-100,-100,-100,0,0,100,0.00,40.00,0,-999,0,0.01
2013-5-20,42,36,31,-100,-100,-100,0,0,100,0.00,40.00,0,-999,0,0.00
2013-5-21,47,40,32,-100,-100,-100,0,0,100,0.00,40.00,0,-999,0,0.00
2013-5-22,57,42,30,-100,-100,-100,0,0,100,0.00,40.00,0,-999,0,0.00
2013-5-23,61,45,30,-100,-100,-100,0,0,100,0.00,40.00,0,-999,0,0.00
2013-5-24,60,46,30,-100,-100,-100,0,0,100,0.00,40.00,0,-999,0,0.00
2013-5-25,60,45,30,-100,-100,-100,0,0,100,0.00,40.00,0,-999,0,0.00
2013-5-26,61,47,32,-100,-100,-100,0,0,100,0.00,40.00,0,-999,0,0.00
2013-5-27,56,44,32,-100,-100,-100,0,0,100,0.00,40.00,0,-999,0,0.00
2013-5-28,56,43,30,-100,-100,-100,0,0,100,0.00,40.00,0,-999,0,0.00
2013-5-29,46,38,31,-100,-100,-100,0,0,100,0.00,40.00,0,-999,0,0.00
2013-5-30,46,38,33,-100,-100,-100,0,0,100,0.00,40.00,0,-999,0,0.00
2013-5-31,45,39,31,-100,-100,-100,0,0,100,0.00,40.00,0,-999,0,0.00